Data No.,UTC Date,UTC Time,Latitude,Longitude,Course(deg),Temp(degC),Sal(psu)
5988,2011/8/8,2:22:00,00-00.2100N,144-52.9200E,342,29.031,34.0904
5989,2011/8/8,2:23:00,00-00.4200N,144-52.8600E,342,29.032,34.0893
5990,2011/8/8,2:24:00,00-00.6400N,144-52.7900E,342,29.031,34.0907
5991,2011/8/8,2:25:00,00-00.8500N,144-52.7200E,342,29.034,34.0905
5992,2011/8/8,2:26:00,00-01.0600N,144-52.6600E,341,29.042,34.0895
5993,2011/8/8,2:27:00,00-01.2700N,144-52.5900E,342,29.043,34.0891
5994,2011/8/8,2:28:00,00-01.4800N,144-52.5200E,342,29.048,34.0895
5995,2011/8/8,2:29:00,00-01.6900N,144-52.4500E,342,29.048,34.0888
5996,2011/8/8,2:30:00,00-01.9100N,144-52.3900E,342,29.051,34.0896
5997,2011/8/8,2:31:00,00-02.1200N,144-52.3200E,342,29.042,34.0905
5998,2011/8/8,2:32:00,00-02.3500N,144-52.2600E,342,29.046,34.091
5999,2011/8/8,2:33:00,00-02.5600N,144-52.1900E,342,29.052,34.0923
6000,2011/8/8,2:34:00,00-02.7700N,144-52.1200E,341,29.058,34.092
6001,2011/8/8,2:35:00,00-02.9800N,144-52.0600E,341,29.061,34.0928
6002,2011/8/8,2:36:00,00-03.1900N,144-51.9900E,341,29.048,34.0921
6003,2011/8/8,2:37:00,00-03.4000N,144-51.9200E,341,29.031,34.0911
6004,2011/8/8,2:38:00,00-03.6100N,144-51.8500E,342,29.024,34.0862
6005,2011/8/8,2:39:00,00-03.8300N,144-51.7800E,342,29.029,34.0825
6006,2011/8/8,2:40:00,00-04.0300N,144-51.7200E,342,29.028,34.0798
6007,2011/8/8,2:41:00,00-04.2500N,144-51.6500E,342,29.028,34.0776
6008,2011/8/8,2:42:00,00-04.4600N,144-51.5900E,342,29.021,34.0759
6009,2011/8/8,2:43:00,00-04.6700N,144-51.5300E,342,29.027,34.0737
6010,2011/8/8,2:44:00,00-04.8900N,144-51.4600E,342,29.013,34.0713
6011,2011/8/8,2:45:00,00-05.1000N,144-51.4000E,342,29.019,34.0694
6012,2011/8/8,2:46:00,00-05.3100N,144-51.3300E,342,29.025,34.0686
6013,2011/8/8,2:47:00,00-05.5200N,144-51.2700E,342,29.03,34.0684
6014,2011/8/8,2:48:00,00-05.7300N,144-51.2000E,342,29.036,34.0667
6015,2011/8/8,2:49:00,00-05.9500N,144-51.1400E,342,29.039,34.0661
6016,2011/8/8,2:50:00,00-06.1600N,144-51.0700E,342,29.035,34.0662
6017,2011/8/8,2:51:00,00-06.3800N,144-51.0000E,342,29.037,34.0677
6018,2011/8/8,2:52:00,00-06.5900N,144-50.9400E,342,29.041,34.0677
6019,2011/8/8,2:53:00,00-06.8200N,144-50.8700E,342,29.044,34.069
6020,2011/8/8,2:54:00,00-07.0400N,144-50.8000E,342,29.047,34.0685
6021,2011/8/8,2:55:00,00-07.2500N,144-50.7400E,343,29.039,34.0668
6022,2011/8/8,2:56:00,00-07.4600N,144-50.6700E,342,29.042,34.0661
6023,2011/8/8,2:57:00,00-07.6700N,144-50.6100E,343,29.038,34.0643
6024,2011/8/8,2:58:00,00-07.8800N,144-50.5400E,342,29.049,34.063
6025,2011/8/8,2:59:00,00-08.1000N,144-50.4800E,342,29.046,34.0599
6026,2011/8/8,3:00:00,00-08.3100N,144-50.4100E,343,29.039,34.0581
6027,2011/8/8,3:01:00,00-08.5200N,144-50.3500E,343,29.042,34.0568
6028,2011/8/8,3:02:00,00-08.7400N,144-50.2900E,343,29.042,34.0564
6029,2011/8/8,3:03:00,00-08.9500N,144-50.2200E,342,29.042,34.0575
6030,2011/8/8,3:04:00,00-09.1700N,144-50.1600E,342,29.047,34.0578
6031,2011/8/8,3:05:00,00-09.3700N,144-50.0900E,342,29.04,34.0573
6032,2011/8/8,3:06:00,00-09.5900N,144-50.0300E,342,29.047,34.055
6033,2011/8/8,3:07:00,00-09.8000N,144-49.9600E,342,29.046,34.0582
6034,2011/8/8,3:08:00,00-10.0100N,144-49.9000E,342,29.036,34.0619
6035,2011/8/8,3:09:00,00-10.2300N,144-49.8300E,343,29.043,34.0598
6036,2011/8/8,3:10:00,00-10.4400N,144-49.7700E,342,29.045,34.0646
6037,2011/8/8,3:11:00,00-10.6500N,144-49.7000E,342,29.046,34.0649
6038,2011/8/8,3:12:00,00-10.8700N,144-49.6300E,342,29.043,34.0722
6039,2011/8/8,3:13:00,00-11.0800N,144-49.5700E,342,29.036,34.0724
6040,2011/8/8,3:14:00,00-11.2900N,144-49.5000E,343,29.028,34.0571
6041,2011/8/8,3:15:00,00-11.5100N,144-49.4400E,343,29.047,34.0439
6042,2011/8/8,3:16:00,00-11.7400N,144-49.3700E,343,29.046,34.0466
6043,2011/8/8,3:17:00,00-11.9600N,144-49.3100E,342,29.049,34.0557
6044,2011/8/8,3:18:00,00-12.1700N,144-49.2400E,342,29.054,34.0678
6045,2011/8/8,3:19:00,00-12.3800N,144-49.1800E,342,29.065,34.0757
6046,2011/8/8,3:20:00,00-12.6000N,144-49.1100E,343,29.069,34.0791
6047,2011/8/8,3:21:00,00-12.8100N,144-49.0500E,343,29.06,34.0847
6048,2011/8/8,3:22:00,00-13.0300N,144-48.9800E,343,29.064,34.0752
6049,2011/8/8,3:23:00,00-13.2500N,144-48.9200E,343,29.065,34.0692
6050,2011/8/8,3:24:00,00-13.4500N,144-48.8600E,343,29.064,34.0674
6051,2011/8/8,3:25:00,00-13.6700N,144-48.7900E,343,29.062,34.0628
6052,2011/8/8,3:26:00,00-13.8800N,144-48.7300E,343,29.064,34.0583
6053,2011/8/8,3:27:00,00-14.0900N,144-48.6700E,342,29.071,34.0501
6054,2011/8/8,3:28:00,00-14.3100N,144-48.6000E,343,29.074,34.0572
6055,2011/8/8,3:29:00,00-14.5200N,144-48.5400E,343,29.078,34.0567
6056,2011/8/8,3:30:00,00-14.7300N,144-48.4700E,342,29.077,34.0442
6057,2011/8/8,3:31:00,00-14.9500N,144-48.4100E,343,29.087,34.0456
6058,2011/8/8,3:32:00,00-15.1500N,144-48.3500E,342,29.088,34.0509
6059,2011/8/8,3:33:00,00-15.3700N,144-48.2800E,342,29.088,34.0487
6060,2011/8/8,3:34:00,00-15.5800N,144-48.2200E,342,29.084,34.0376
6061,2011/8/8,3:35:00,00-15.7900N,144-48.1500E,342,29.09,34.0341
6062,2011/8/8,3:36:00,00-16.0100N,144-48.0900E,343,29.089,34.0314
6063,2011/8/8,3:37:00,00-16.2200N,144-48.0200E,343,29.082,34.0271
6064,2011/8/8,3:38:00,00-16.4300N,144-47.9600E,343,29.08,34.0215
6065,2011/8/8,3:39:00,00-16.6700N,144-47.8900E,343,29.089,34.0169
6066,2011/8/8,3:40:00,00-16.8800N,144-47.8300E,343,29.087,34.0204
6067,2011/8/8,3:41:00,00-17.1000N,144-47.7600E,342,29.091,34.0239
6068,2011/8/8,3:42:00,00-17.3100N,144-47.7000E,343,29.08,34.0265
6069,2011/8/8,3:43:00,00-17.5200N,144-47.6400E,343,29.092,34.0237
6070,2011/8/8,3:44:00,00-17.7300N,144-47.5800E,343,29.107,34.0266
6071,2011/8/8,3:45:00,00-17.9400N,144-47.5100E,343,29.111,34.033
6072,2011/8/8,3:46:00,00-18.1600N,144-47.4500E,343,29.116,34.0371
6073,2011/8/8,3:47:00,00-18.3700N,144-47.3800E,343,29.12,34.0363
6074,2011/8/8,3:48:00,00-18.5800N,144-47.3200E,343,29.109,34.04
6075,2011/8/8,3:49:00,00-18.8000N,144-47.2600E,343,29.114,34.0425
6076,2011/8/8,3:50:00,00-19.0200N,144-47.2000E,343,29.115,34.0412
6077,2011/8/8,3:51:00,00-19.2300N,144-47.1400E,343,29.12,34.0389
6078,2011/8/8,3:52:00,00-19.4400N,144-47.0700E,343,29.125,34.0377
6079,2011/8/8,3:53:00,00-19.6500N,144-47.0100E,343,29.111,34.0386
6080,2011/8/8,3:54:00,00-19.8600N,144-46.9500E,343,29.118,34.0372
6081,2011/8/8,3:55:00,00-20.0800N,144-46.8800E,343,29.104,34.0356
6082,2011/8/8,3:56:00,00-20.2900N,144-46.8200E,343,29.092,34.036
6083,2011/8/8,3:57:00,00-20.5000N,144-46.7600E,343,29.103,34.0349
6084,2011/8/8,3:58:00,00-20.7100N,144-46.7000E,343,29.117,34.0331
6085,2011/8/8,3:59:00,00-20.9200N,144-46.6300E,343,29.122,34.041
6086,2011/8/8,4:00:00,00-21.1400N,144-46.5700E,343,29.129,34.0476
6087,2011/8/8,4:01:00,00-21.3700N,144-46.5000E,343,29.128,34.0516
6088,2011/8/8,4:02:00,00-21.5800N,144-46.4400E,342,29.141,34.0519
6089,2011/8/8,4:03:00,00-21.7900N,144-46.3800E,343,29.153,34.0526
6090,2011/8/8,4:04:00,00-22.0100N,144-46.3200E,343,29.149,34.0531
6091,2011/8/8,4:05:00,00-22.2200N,144-46.2500E,342,29.163,34.0516
6092,2011/8/8,4:06:00,00-22.4300N,144-46.1800E,341,29.172,34.0517
6093,2011/8/8,4:07:00,00-22.6400N,144-46.1100E,342,29.152,34.0536
6094,2011/8/8,4:08:00,00-22.8400N,144-46.0500E,342,29.16,34.0689
6095,2011/8/8,4:09:00,00-23.0500N,144-45.9800E,342,29.144,34.079
6096,2011/8/8,4:10:00,00-23.2600N,144-45.9100E,341,29.151,34.0815
6097,2011/8/8,4:11:00,00-23.4700N,144-45.8400E,341,29.143,34.0823
6098,2011/8/8,4:12:00,00-23.6800N,144-45.7700E,341,29.133,34.0826
6099,2011/8/8,4:13:00,00-23.8900N,144-45.7100E,341,29.15,34.0838
6100,2011/8/8,4:14:00,00-24.0900N,144-45.6400E,341,29.147,34.087
6101,2011/8/8,4:15:00,00-24.3000N,144-45.5700E,342,29.122,34.0875
6102,2011/8/8,4:16:00,00-24.5100N,144-45.5000E,341,29.122,34.0852
6103,2011/8/8,4:17:00,00-24.7200N,144-45.4300E,341,29.116,34.0834
6104,2011/8/8,4:18:00,00-24.9300N,144-45.3600E,341,29.119,34.0834
6105,2011/8/8,4:19:00,00-25.1300N,144-45.3000E,341,29.114,34.0826
6106,2011/8/8,4:20:00,00-25.3400N,144-45.2300E,342,29.119,34.0819
6107,2011/8/8,4:21:00,00-25.5500N,144-45.1600E,341,29.118,34.0813
6108,2011/8/8,4:22:00,00-25.7700N,144-45.0900E,341,29.114,34.0798
6109,2011/8/8,4:23:00,00-25.9800N,144-45.0200E,341,29.116,34.079
6110,2011/8/8,4:24:00,00-26.1900N,144-44.9500E,342,29.107,34.0779
6111,2011/8/8,4:25:00,00-26.4000N,144-44.8800E,342,29.118,34.0778
6112,2011/8/8,4:26:00,00-26.6100N,144-44.8100E,342,29.134,34.0793
6113,2011/8/8,4:27:00,00-26.8100N,144-44.7500E,342,29.12,34.0824
6114,2011/8/8,4:28:00,00-27.0200N,144-44.6800E,342,29.095,34.0817
6115,2011/8/8,4:29:00,00-27.2300N,144-44.6200E,342,29.096,34.0801
6116,2011/8/8,4:30:00,00-27.4400N,144-44.5500E,342,29.095,34.0801
6117,2011/8/8,4:31:00,00-27.6400N,144-44.4800E,341,29.116,34.0814
6118,2011/8/8,4:32:00,00-27.8500N,144-44.4100E,341,29.125,34.0838
6119,2011/8/8,4:33:00,00-28.0600N,144-44.3500E,342,29.122,34.0862
6120,2011/8/8,4:34:00,00-28.2700N,144-44.2800E,342,29.128,34.089
6121,2011/8/8,4:35:00,00-28.4800N,144-44.2100E,342,29.134,34.0907
6122,2011/8/8,4:36:00,00-28.6900N,144-44.1500E,341,29.133,34.0914
6123,2011/8/8,4:37:00,00-28.9000N,144-44.0800E,342,29.126,34.0927
6124,2011/8/8,4:38:00,00-29.1100N,144-44.0100E,342,29.139,34.0934
6125,2011/8/8,4:39:00,00-29.3200N,144-43.9500E,342,29.14,34.0937
6126,2011/8/8,4:40:00,00-29.5300N,144-43.8800E,342,29.15,34.0933
6127,2011/8/8,4:41:00,00-29.7300N,144-43.8200E,342,29.139,34.0937
6128,2011/8/8,4:42:00,00-29.9400N,144-43.7500E,342,29.15,34.0926
6129,2011/8/8,4:43:00,00-30.1500N,144-43.6800E,341,29.15,34.0935
6130,2011/8/8,4:44:00,00-30.3700N,144-43.6100E,341,29.145,34.0904
6131,2011/8/8,4:45:00,00-30.5800N,144-43.5400E,342,29.141,34.0887
6132,2011/8/8,4:46:00,00-30.7900N,144-43.4800E,342,29.144,34.0887
6133,2011/8/8,4:47:00,00-31.0000N,144-43.4100E,342,29.131,34.0855
6134,2011/8/8,4:48:00,00-31.2100N,144-43.3400E,341,29.117,34.0826
6135,2011/8/8,4:49:00,00-31.4200N,144-43.2800E,342,29.098,34.0768
6136,2011/8/8,4:50:00,00-31.6300N,144-43.2100E,342,29.103,34.0731
6137,2011/8/8,4:51:00,00-31.8400N,144-43.1400E,342,29.091,34.0721
6138,2011/8/8,4:52:00,00-32.0500N,144-43.0800E,343,29.086,34.0689
6139,2011/8/8,4:53:00,00-32.2600N,144-43.0200E,342,29.083,34.0667
6140,2011/8/8,4:54:00,00-32.4700N,144-42.9500E,342,29.076,34.0634
6141,2011/8/8,4:55:00,00-32.6800N,144-42.8900E,342,29.074,34.0616
6142,2011/8/8,4:56:00,00-32.8900N,144-42.8200E,342,29.081,34.0616
6143,2011/8/8,4:57:00,00-33.0900N,144-42.7500E,342,29.077,34.0601
6144,2011/8/8,4:58:00,00-33.3000N,144-42.6900E,342,29.08,34.0597
6145,2011/8/8,4:59:00,00-33.5100N,144-42.6200E,342,29.078,34.0588
6146,2011/8/8,5:00:00,00-33.7200N,144-42.5600E,342,29.075,34.0576
6147,2011/8/8,5:01:00,00-33.9300N,144-42.5000E,342,29.086,34.0562
6148,2011/8/8,5:02:00,00-34.1400N,144-42.4300E,342,29.08,34.0549
6149,2011/8/8,5:03:00,00-34.3500N,144-42.3600E,342,29.08,34.0548
6150,2011/8/8,5:04:00,00-34.5700N,144-42.3000E,342,29.081,34.0545
6151,2011/8/8,5:05:00,00-34.7900N,144-42.2300E,341,29.078,34.0543
6152,2011/8/8,5:06:00,00-34.9900N,144-42.1600E,342,29.09,34.0544
6153,2011/8/8,5:07:00,00-35.2000N,144-42.1000E,342,29.101,34.0548
6154,2011/8/8,5:08:00,00-35.4100N,144-42.0300E,342,29.095,34.0552
6155,2011/8/8,5:09:00,00-35.6200N,144-41.9600E,342,29.097,34.0553
6156,2011/8/8,5:10:00,00-35.8400N,144-41.9000E,342,29.095,34.0553
6157,2011/8/8,5:11:00,00-36.0400N,144-41.8300E,341,29.092,34.0548
6158,2011/8/8,5:12:00,00-36.2600N,144-41.7600E,342,29.094,34.0543
6159,2011/8/8,5:13:00,00-36.4700N,144-41.7000E,342,29.086,34.0546
6160,2011/8/8,5:14:00,00-36.6800N,144-41.6300E,341,29.103,34.0556
6161,2011/8/8,5:15:00,00-36.8900N,144-41.5600E,341,29.105,34.0564
6162,2011/8/8,5:16:00,00-37.1100N,144-41.4900E,341,29.107,34.0567
6163,2011/8/8,5:17:00,00-37.3100N,144-41.4200E,341,29.117,34.0584
6164,2011/8/8,5:18:00,00-37.5300N,144-41.3500E,342,29.106,34.0598
6165,2011/8/8,5:19:00,00-37.7400N,144-41.2900E,342,29.113,34.0605
6166,2011/8/8,5:20:00,00-37.9400N,144-41.2200E,341,29.126,34.061
6167,2011/8/8,5:21:00,00-38.1500N,144-41.1500E,341,29.123,34.061
6168,2011/8/8,5:22:00,00-38.3700N,144-41.0900E,342,29.119,34.0613
6169,2011/8/8,5:23:00,00-38.5800N,144-41.0200E,341,29.132,34.0613
6170,2011/8/8,5:24:00,00-38.7900N,144-40.9500E,341,29.125,34.0616
6171,2011/8/8,5:25:00,00-39.0000N,144-40.8800E,341,29.132,34.0617
6172,2011/8/8,5:26:00,00-39.2100N,144-40.8100E,341,29.139,34.0612
6173,2011/8/8,5:27:00,00-39.4400N,144-40.7400E,341,29.144,34.0611
6174,2011/8/8,5:28:00,00-39.6500N,144-40.6700E,341,29.134,34.0616
6175,2011/8/8,5:29:00,00-39.8600N,144-40.6000E,341,29.15,34.0612
6176,2011/8/8,5:30:00,00-40.0800N,144-40.5300E,341,29.149,34.0621
6177,2011/8/8,5:31:00,00-40.2800N,144-40.4600E,341,29.161,34.0631
6178,2011/8/8,5:32:00,00-40.5000N,144-40.3900E,341,29.171,34.0642
6179,2011/8/8,5:33:00,00-40.7000N,144-40.3200E,341,29.165,34.0657
6180,2011/8/8,5:34:00,00-40.9200N,144-40.2500E,341,29.148,34.0655
6181,2011/8/8,5:35:00,00-41.1300N,144-40.1800E,341,29.135,34.0658
6182,2011/8/8,5:36:00,00-41.3400N,144-40.1100E,341,29.138,34.065
6183,2011/8/8,5:37:00,00-41.5600N,144-40.0400E,341,29.14,34.0641
6184,2011/8/8,5:38:00,00-41.7600N,144-39.9700E,341,29.142,34.064
6185,2011/8/8,5:39:00,00-41.9800N,144-39.9000E,341,29.139,34.0636
6186,2011/8/8,5:40:00,00-42.1900N,144-39.8300E,341,29.134,34.0634
6187,2011/8/8,5:41:00,00-42.4000N,144-39.7600E,341,29.154,34.0636
6188,2011/8/8,5:42:00,00-42.6100N,144-39.6900E,341,29.14,34.0649
6189,2011/8/8,5:43:00,00-42.8200N,144-39.6200E,341,29.128,34.0655
6190,2011/8/8,5:44:00,00-43.0300N,144-39.5600E,342,29.137,34.065
6191,2011/8/8,5:45:00,00-43.2500N,144-39.4900E,341,29.142,34.0656
6192,2011/8/8,5:46:00,00-43.4600N,144-39.4200E,341,29.142,34.0659
6193,2011/8/8,5:47:00,00-43.6700N,144-39.3500E,341,29.146,34.0661
6194,2011/8/8,5:48:00,00-43.8900N,144-39.2700E,341,29.154,34.0674
6195,2011/8/8,5:49:00,00-44.1100N,144-39.2000E,341,29.149,34.0677
6196,2011/8/8,5:50:00,00-44.3300N,144-39.1300E,341,29.155,34.0685
6197,2011/8/8,5:51:00,00-44.5400N,144-39.0600E,341,29.167,34.0676
6198,2011/8/8,5:52:00,00-44.7500N,144-38.9900E,341,29.186,34.0689
6199,2011/8/8,5:53:00,00-44.9600N,144-38.9100E,341,29.212,34.0693
6200,2011/8/8,5:54:00,00-45.1700N,144-38.8400E,341,29.223,34.0749
6201,2011/8/8,5:55:00,00-45.3800N,144-38.7700E,340,29.241,34.08
6202,2011/8/8,5:56:00,00-45.6000N,144-38.6900E,340,29.18,34.0841
6203,2011/8/8,5:57:00,00-45.8100N,144-38.6200E,340,29.198,34.0861
6204,2011/8/8,5:58:00,00-46.0200N,144-38.5500E,340,29.197,34.0858
6205,2011/8/8,5:59:00,00-46.2300N,144-38.4800E,341,29.166,34.0868
6206,2011/8/8,6:00:00,00-46.4400N,144-38.4100E,340,29.154,34.0852
6207,2011/8/8,6:01:00,00-46.6500N,144-38.3300E,340,29.165,34.0841
6208,2011/8/8,6:02:00,00-46.8600N,144-38.2600E,340,29.166,34.0852
6209,2011/8/8,6:03:00,00-47.0700N,144-38.1900E,340,29.162,34.0863
6210,2011/8/8,6:04:00,00-47.2900N,144-38.1200E,340,29.194,34.0865
6211,2011/8/8,6:05:00,00-47.4900N,144-38.0400E,340,29.205,34.0858
6212,2011/8/8,6:06:00,00-47.7000N,144-37.9700E,339,29.225,34.0855
6213,2011/8/8,6:07:00,00-47.9100N,144-37.8900E,340,29.235,34.0855
6214,2011/8/8,6:08:00,00-48.1100N,144-37.8200E,340,29.212,34.0857
6217,2011/8/8,6:09:00,00-48.3300N,144-37.7500E,340,29.222,34.0855
6218,2011/8/8,6:10:00,00-48.5400N,144-37.6700E,340,29.188,34.0839
6219,2011/8/8,6:11:00,00-48.7400N,144-37.6000E,340,29.187,34.0805
6220,2011/8/8,6:12:00,00-48.9500N,144-37.5300E,340,29.197,34.0777
6221,2011/8/8,6:13:00,00-49.1600N,144-37.4500E,340,29.185,34.0765
6222,2011/8/8,6:14:00,00-49.3700N,144-37.3800E,339,29.185,34.0743
6223,2011/8/8,6:15:00,00-49.5800N,144-37.3000E,340,29.196,34.0713
6224,2011/8/8,6:16:00,00-49.7800N,144-37.2300E,339,29.198,34.0682
6225,2011/8/8,6:17:00,00-50.0000N,144-37.1500E,340,29.207,34.0649
6226,2011/8/8,6:18:00,00-50.2000N,144-37.0800E,340,29.194,34.0661
6227,2011/8/8,6:19:00,00-50.4100N,144-37.0100E,339,29.195,34.0579
6228,2011/8/8,6:20:00,00-50.6200N,144-36.9300E,339,29.176,34.0512
6229,2011/8/8,6:21:00,00-50.8200N,144-36.8600E,339,29.172,34.0475
6230,2011/8/8,6:22:00,00-51.0300N,144-36.7800E,339,29.182,34.0471
6231,2011/8/8,6:23:00,00-51.2400N,144-36.7000E,340,29.188,34.0466
6232,2011/8/8,6:24:00,00-51.4700N,144-36.6200E,340,29.19,34.0445
6233,2011/8/8,6:25:00,00-51.6800N,144-36.5500E,340,29.165,34.0422
6234,2011/8/8,6:26:00,00-51.8800N,144-36.4700E,340,29.17,34.0367
6235,2011/8/8,6:27:00,00-52.0900N,144-36.4000E,339,29.143,34.0322
6236,2011/8/8,6:28:00,00-52.3000N,144-36.3200E,339,29.129,34.0268
6237,2011/8/8,6:29:00,00-52.5000N,144-36.2500E,339,29.114,34.0187
6238,2011/8/8,6:30:00,00-52.7100N,144-36.1700E,338,29.11,34.0154
6239,2011/8/8,6:31:00,00-52.9200N,144-36.0900E,339,29.088,34.0112
6240,2011/8/8,6:32:00,00-53.1300N,144-36.0100E,339,29.08,34.0085
6241,2011/8/8,6:33:00,00-53.3400N,144-35.9400E,339,29.075,33.9989
6242,2011/8/8,6:34:00,00-53.5500N,144-35.8600E,338,29.074,33.9949
6243,2011/8/8,6:35:00,00-53.7600N,144-35.7800E,339,29.08,33.9938
6244,2011/8/8,6:36:00,00-53.9700N,144-35.7000E,339,29.081,33.9929
6245,2011/8/8,6:37:00,00-54.1800N,144-35.6200E,339,29.094,33.9912
6246,2011/8/8,6:38:00,00-54.3900N,144-35.5500E,339,29.098,33.9896
6247,2011/8/8,6:39:00,00-54.6000N,144-35.4700E,339,29.1,33.9891
6248,2011/8/8,6:40:00,00-54.8000N,144-35.3900E,339,29.109,33.9876
6249,2011/8/8,6:41:00,00-55.0100N,144-35.3200E,339,29.12,33.9867
6250,2011/8/8,6:42:00,00-55.2200N,144-35.2400E,339,29.118,33.9859
6251,2011/8/8,6:43:00,00-55.4300N,144-35.1600E,339,29.1,33.9849
6252,2011/8/8,6:44:00,00-55.6400N,144-35.0800E,339,29.095,33.9849
6253,2011/8/8,6:45:00,00-55.8500N,144-35.0100E,339,29.08,33.984
6254,2011/8/8,6:46:00,00-56.0700N,144-34.9200E,338,29.067,33.9837
6255,2011/8/8,6:47:00,00-56.2800N,144-34.8400E,338,29.071,33.9833
6256,2011/8/8,6:48:00,00-56.4900N,144-34.7600E,339,29.063,33.983
6257,2011/8/8,6:49:00,00-56.6900N,144-34.6800E,338,29.064,33.9822
6258,2011/8/8,6:50:00,00-56.9000N,144-34.6000E,339,29.078,33.9816
6259,2011/8/8,6:51:00,00-57.1100N,144-34.5200E,339,29.073,33.9801
6260,2011/8/8,6:52:00,00-57.3200N,144-34.4500E,339,29.065,33.9795
6261,2011/8/8,6:53:00,00-57.5200N,144-34.3700E,339,29.063,33.9786
6262,2011/8/8,6:54:00,00-57.7300N,144-34.2900E,339,29.058,33.9788
6263,2011/8/8,6:55:00,00-57.9400N,144-34.2100E,339,29.055,33.9778
6264,2011/8/8,6:56:00,00-58.1500N,144-34.1300E,339,29.064,33.9766
6265,2011/8/8,6:57:00,00-58.3500N,144-34.0600E,340,29.084,33.9774
6266,2011/8/8,6:58:00,00-58.5600N,144-33.9800E,339,29.086,33.9761
6267,2011/8/8,6:59:00,00-58.7700N,144-33.9100E,339,29.088,33.9758
6268,2011/8/8,7:00:00,00-58.9700N,144-33.8300E,339,29.096,33.9752
6269,2011/8/8,7:01:00,00-59.1800N,144-33.7600E,340,29.099,33.9763
6270,2011/8/8,7:02:00,00-59.3900N,144-33.6800E,340,29.098,33.9784
6271,2011/8/8,7:03:00,00-59.6000N,144-33.6100E,340,29.104,33.9791
6272,2011/8/8,7:04:00,00-59.8100N,144-33.5300E,340,29.1,33.9786
6273,2011/8/8,7:05:00,01-00.0100N,144-33.4600E,340,29.102,33.9778
6274,2011/8/8,7:06:00,01-00.2200N,144-33.3800E,339,29.113,33.9768
6275,2011/8/8,7:07:00,01-00.4300N,144-33.3100E,339,29.1,33.9765
6276,2011/8/8,7:08:00,01-00.6500N,144-33.2300E,339,29.113,33.9759
6277,2011/8/8,7:09:00,01-00.8500N,144-33.1500E,340,29.106,33.9745
6278,2011/8/8,7:10:00,01-01.0600N,144-33.0800E,340,29.096,33.9721
6279,2011/8/8,7:11:00,01-01.2700N,144-33.0100E,340,29.1,33.9712
6280,2011/8/8,7:12:00,01-01.4800N,144-32.9300E,340,29.117,33.9712
6281,2011/8/8,7:13:00,01-01.6800N,144-32.8600E,340,29.119,33.9712
6282,2011/8/8,7:14:00,01-01.8900N,144-32.7800E,340,29.11,33.9699
6283,2011/8/8,7:15:00,01-02.1000N,144-32.7100E,339,29.108,33.9687
6284,2011/8/8,7:16:00,01-02.3100N,144-32.6300E,340,29.105,33.9688
6285,2011/8/8,7:17:00,01-02.5100N,144-32.5600E,340,29.1,33.9681
6286,2011/8/8,7:18:00,01-02.7200N,144-32.4800E,340,29.109,33.9683
6287,2011/8/8,7:19:00,01-02.9200N,144-32.4100E,340,29.108,33.9683
6288,2011/8/8,7:20:00,01-03.1300N,144-32.3400E,340,29.101,33.9683
6289,2011/8/8,7:21:00,01-03.3400N,144-32.2700E,340,29.106,33.9683
6290,2011/8/8,7:22:00,01-03.5400N,144-32.1900E,340,29.115,33.9675
6291,2011/8/8,7:23:00,01-03.7500N,144-32.1200E,340,29.112,33.9682
6292,2011/8/8,7:24:00,01-03.9600N,144-32.0500E,340,29.11,33.9674
6293,2011/8/8,7:25:00,01-04.1600N,144-31.9800E,340,29.126,33.9658
6294,2011/8/8,7:26:00,01-04.3700N,144-31.9000E,339,29.147,33.9665
6295,2011/8/8,7:27:00,01-04.5700N,144-31.8200E,339,29.117,33.9671
6296,2011/8/8,7:28:00,01-04.7800N,144-31.7500E,340,29.108,33.9657
6297,2011/8/8,7:29:00,01-05.0000N,144-31.6700E,340,29.121,33.9644
6298,2011/8/8,7:30:00,01-05.2100N,144-31.6000E,340,29.107,33.9622
6299,2011/8/8,7:31:00,01-05.4100N,144-31.5200E,340,29.104,33.9612
6300,2011/8/8,7:32:00,01-05.6200N,144-31.4500E,339,29.112,33.9592
6301,2011/8/8,7:33:00,01-05.8300N,144-31.3800E,340,29.097,33.9582
6302,2011/8/8,7:34:00,01-06.0300N,144-31.3000E,340,29.103,33.9579
6303,2011/8/8,7:35:00,01-06.2400N,144-31.2300E,339,29.098,33.9562
6304,2011/8/8,7:36:00,01-06.4400N,144-31.1600E,340,29.116,33.9544
6305,2011/8/8,7:37:00,01-06.6600N,144-31.0800E,340,29.103,33.9526
6306,2011/8/8,7:38:00,01-06.8600N,144-31.0100E,340,29.106,33.9509
6307,2011/8/8,7:39:00,01-07.0700N,144-30.9400E,340,29.097,33.9499
6308,2011/8/8,7:40:00,01-07.2700N,144-30.8600E,340,29.079,33.9476
6309,2011/8/8,7:41:00,01-07.4900N,144-30.7900E,341,29.077,33.9453
6310,2011/8/8,7:42:00,01-07.7000N,144-30.7200E,340,29.073,33.9432
6311,2011/8/8,7:43:00,01-07.9000N,144-30.6500E,340,29.07,33.9412
6312,2011/8/8,7:44:00,01-08.1100N,144-30.5700E,340,29.073,33.9398
6313,2011/8/8,7:45:00,01-08.3200N,144-30.5000E,339,29.063,33.9407
6314,2011/8/8,7:46:00,01-08.5300N,144-30.4200E,340,29.077,33.9373
6315,2011/8/8,7:47:00,01-08.7400N,144-30.3500E,340,29.095,33.9357
6316,2011/8/8,7:48:00,01-08.9500N,144-30.2800E,340,29.091,33.937
6317,2011/8/8,7:49:00,01-09.1600N,144-30.2100E,340,29.088,33.9383
6318,2011/8/8,7:50:00,01-09.3800N,144-30.1300E,340,29.077,33.9387
6319,2011/8/8,7:51:00,01-09.5900N,144-30.0500E,340,29.087,33.9359
6320,2011/8/8,7:52:00,01-09.8000N,144-29.9800E,340,29.083,33.936
6321,2011/8/8,7:53:00,01-10.0100N,144-29.9100E,340,29.083,33.936
6322,2011/8/8,7:54:00,01-10.2200N,144-29.8300E,340,29.1,33.9332
6323,2011/8/8,7:55:00,01-10.4300N,144-29.7600E,340,29.135,33.9336
6324,2011/8/8,7:56:00,01-10.6400N,144-29.6900E,340,29.143,33.9381
6325,2011/8/8,7:57:00,01-10.8400N,144-29.6200E,340,29.146,33.9482
6326,2011/8/8,7:58:00,01-11.0600N,144-29.5400E,340,29.163,33.9464
6327,2011/8/8,7:59:00,01-11.2600N,144-29.4700E,340,29.136,33.9512
6328,2011/8/8,8:00:00,01-11.4700N,144-29.4000E,340,29.146,33.9527
6329,2011/8/8,8:01:00,01-11.6800N,144-29.3200E,340,29.146,33.9524
6330,2011/8/8,8:02:00,01-11.8900N,144-29.2500E,340,29.168,33.9532
6331,2011/8/8,8:03:00,01-12.0900N,144-29.1800E,340,29.159,33.9576
6332,2011/8/8,8:04:00,01-12.3100N,144-29.1000E,340,29.164,33.9668
6333,2011/8/8,8:05:00,01-12.5100N,144-29.0300E,340,29.166,33.9643
6334,2011/8/8,8:06:00,01-12.7200N,144-28.9600E,340,29.182,33.9686
6335,2011/8/8,8:07:00,01-12.9300N,144-28.8800E,340,29.167,33.9653
6336,2011/8/8,8:08:00,01-13.1400N,144-28.8100E,340,29.171,33.9669
6337,2011/8/8,8:09:00,01-13.3500N,144-28.7400E,340,29.186,33.9655
6338,2011/8/8,8:10:00,01-13.5600N,144-28.6600E,340,29.235,33.969
6339,2011/8/8,8:11:00,01-13.7700N,144-28.5900E,341,29.206,33.9724
6340,2011/8/8,8:12:00,01-14.0000N,144-28.5200E,341,29.235,33.9899
6341,2011/8/8,8:13:00,01-14.2100N,144-28.4500E,341,29.272,33.9931
6342,2011/8/8,8:14:00,01-14.4200N,144-28.3800E,340,29.269,34.0045
6343,2011/8/8,8:15:00,01-14.6200N,144-28.3100E,340,29.234,34.0129
6344,2011/8/8,8:16:00,01-14.8300N,144-28.2400E,341,29.173,34.0074
6345,2011/8/8,8:17:00,01-15.0400N,144-28.1600E,340,29.153,34.0016
6346,2011/8/8,8:18:00,01-15.2400N,144-28.0900E,340,29.165,34.0033
6347,2011/8/8,8:19:00,01-15.4500N,144-28.0200E,340,29.158,34.0058